Jackson Hawkins Field, MS

11:01 AM CDT on May 27, 2018 (GMT -0500)
Hawkins

Weather History for KHKS - November, 2012

Change the Weather History Date:

Thursday, November 29, 2012

  Actual Average (WUND) Record (WUND)
Temperature  
Mean Temperature 48 °F -  
Max Temperature 64 °F - - (-1)
Min Temperature 32 °F - - (-1)
Degree Days  
Heating Degree Days 17    
Moisture  
Dew Point 33 °F    
Average Humidity 72    
Maximum Humidity 93    
Minimum Humidity 33    
Precipitation  
Precipitation 0.00 in - - ()
Sea Level Pressure  
Sea Level Pressure 30.32 in    
Wind  
Wind Speed 1 mph (SE)    
Max Wind Speed 9 mph    
Max Gust Speed -    
Visibility 7 miles    
Events      
Averages and records for this station are not official NWS values.
T = Trace of Precipitation, MM = Missing Value Source: NWS Daily Summary

Daily Weather History Graph

Daily Weather History Graph

Search for Another Location

Airport or City:

Astronomy

Nov. 29, 2012 Rise Set
Actual Time 6:43 AM CST 4:55 PM CST
Civil Twilight 6:16 AM CST 5:22 PM CST
Nautical Twilight 5:46 AM CST 5:52 PM CST
Astronomical Twilight 5:16 AM CST 6:22 PM CST
Moon 5:58 PM CST (11/29) 7:29 AM CST (11/29)
Length of Visible Light 11h 06m
Length of Day
10h 12m
Full, 99% of the Moon is Illuminated
Nov 29
Full
Dec 6
Last Quarter
Dec 13
New
Dec 19
First Quarter
Dec 28
Full

Hourly Weather History & Observations

Time (CST) Temp. Windchill Dew Point Humidity Pressure Visibility Wind Dir Wind Speed Gust Speed Precip Events Conditions
12:53 AM 35.1 °F - 33.1 °F 92% 30.36 in 9.0 mi Calm Calm - N/A   Clear
1:53 AM 34.0 °F - 32.0 °F 92% 30.36 in 9.0 mi Calm Calm - N/A   Clear
2:53 AM 34.0 °F - 32.0 °F 92% 30.35 in 6.0 mi Calm Calm - N/A   Clear
3:53 AM 33.1 °F - 30.9 °F 92% 30.34 in 6.0 mi Calm Calm - N/A   Clear
4:53 AM 33.1 °F - 30.9 °F 92% 30.33 in 3.0 mi Calm Calm - N/A   Clear
5:06 AM 32.0 °F - 30.2 °F 93% 30.34 in 2.5 mi Calm Calm - N/A   Clear
5:48 AM 33.8 °F - 30.2 °F 87% 30.35 in 4.0 mi Calm Calm - N/A   Clear
5:53 AM 33.1 °F - 30.9 °F 92% 30.34 in 3.0 mi Calm Calm - N/A   Clear
6:03 AM 33.8 °F - 30.2 °F 87% 30.35 in 2.5 mi Calm Calm - N/A   Clear
6:26 AM 33.8 °F - 30.2 °F 87% 30.36 in 4.0 mi Calm Calm - N/A   Clear
6:40 AM 33.8 °F - 30.2 °F 87% 30.36 in 1.8 mi Calm Calm - N/A   Clear
6:53 AM 33.1 °F - 30.9 °F 92% 30.35 in 2.0 mi Calm Calm - N/A   Clear
7:04 AM 33.8 °F - 32.0 °F 93% 30.36 in 4.0 mi Calm Calm - N/A   Clear
7:23 AM 33.8 °F - 30.2 °F 87% 30.37 in 2.5 mi Calm Calm - N/A   Clear
7:36 AM 35.6 °F - 30.2 °F 81% 30.37 in 4.0 mi Calm Calm - N/A   Clear
7:53 AM 37.0 °F - 32.0 °F 82% 30.37 in 9.0 mi Calm Calm - N/A   Clear
8:53 AM 46.9 °F - 34.0 °F 61% 30.38 in 10.0 mi ESE 9.2 mph - N/A   Clear
9:53 AM 52.0 °F - 35.1 °F 53% 30.38 in 10.0 mi SSE 8.1 mph - N/A   Clear
10:53 AM 55.9 °F - 33.1 °F 42% 30.37 in 10.0 mi SE 6.9 mph - N/A   Clear
11:53 AM 60.1 °F - 33.1 °F 36% 30.34 in 10.0 mi Variable 5.8 mph - N/A   Clear
12:53 PM 61.0 °F - 33.1 °F 35% 30.30 in 10.0 mi ESE 8.1 mph - N/A   Clear
1:53 PM 63.0 °F - 33.1 °F 33% 30.27 in 10.0 mi SE 5.8 mph - N/A   Clear
2:53 PM 64.0 °F - 34.0 °F 33% 30.25 in 10.0 mi SE 5.8 mph - N/A   Clear
3:53 PM 61.0 °F - 35.1 °F 38% 30.24 in 10.0 mi ESE 5.8 mph - N/A   Clear
4:53 PM 57.9 °F - 35.1 °F 42% 30.24 in 10.0 mi ESE 4.6 mph - N/A   Clear
5:53 PM 51.1 °F - 37.0 °F 59% 30.26 in 10.0 mi Calm Calm - N/A   Clear
6:53 PM 50.0 °F - 37.9 °F 63% 30.26 in 10.0 mi Calm Calm - N/A   Clear
7:53 PM 46.0 °F - 37.9 °F 73% 30.27 in 10.0 mi Calm Calm - N/A   Clear
8:53 PM 46.9 °F - 39.0 °F 74% 30.28 in 10.0 mi Calm Calm - N/A   Clear
9:53 PM 46.9 °F - 39.0 °F 74% 30.28 in 10.0 mi SE 3.5 mph - N/A   Clear
10:53 PM 45.0 °F - 39.0 °F 80% 30.28 in 10.0 mi Calm Calm - N/A   Clear
11:53 PM 42.1 °F 40.2 °F 37.9 °F 85% 30.27 in 8.0 mi SE 3.5 mph - N/A   Clear